Regional Weather Roundup
Issued by NWS Green Bay, WI

Home | Current Version | Previous Version | Graphics & Text | Print | Product List | Glossary Off
Versions: 1 2 3 4 5 6 7 8 9 10 11 12 13 14 15 16 17 18 19 20 21 22 23 24 25 26 27 28 29 30 31 32 33 34 35 36 37 38 39 40 41 42 43 44 45 46 47 48 49 50

000
ASUS43 KGRB 301610
RWRGRB

NORTH-CENTRAL AND NORTHEAST WISCONSIN REGIONAL WEATHER ROUNDUP
NATIONAL WEATHER SERVICE GREEN BAY WI
1100 AM CDT SAT AUG 30 2014

WIZ005-009-010>012-018-019-301700-
NORTH CENTRAL WISCONSIN

CITY           SKY/WX    TMP DP  RH WIND       PRES   REMARKS
IRONWOOD       NOT AVBL
MANITOWISH WTR DRIZZLE   61  61 100 N7        29.83R
ARBOR VITAE    RAIN      63  61  93 N8        29.82R
EAGLE RIVER    DRIZZLE   64  64 100 N7        29.80R
LAND O LAKES   CLOUDY    63  61  96 N6        29.82S
RHINELANDER    LGT RAIN  65  64  97 N3        29.80S FOG
PHILLIPS       CLOUDY    63  61  94 N5        29.82R
ANTIGO         CLOUDY    66  64  91 NW9       29.79S
TOMAHAWK       CLOUDY    66  63  89 NW7       29.81R
MERRILL        CLOUDY    69  65  86 NW7       29.79S
$$

WIZ013-073-301700-
NORTHEAST WISCONSIN

CITY           SKY/WX    TMP DP  RH WIND       PRES   REMARKS
IRON MOUNTAIN  LGT RAIN  66  64  93 N6        29.76S FOG
MARINETTE      PTSUNNY   73  66  78 SW9       29.72S
OCONTO         CLOUDY    70  69  96 SW3       29.73S
$$

WIZ017-030-035>037-045-301700-
CENTRAL WISCONSIN

CITY           SKY/WX    TMP DP  RH WIND       PRES   REMARKS
MEDFORD        CLOUDY    68  65  89 N8        29.81R
WAUSAU         CLOUDY    71  64  78 NW6       29.77S
MOSINEE        PTSUNNY   70  66  88 NW8       29.79R
MARSHFIELD     CLOUDY    70  66  87 W6        29.80R
WISC RAPIDS    LGT RAIN  72  66  81 W7        29.80R
STEVENS POINT  CLOUDY    67  64  91 CALM      29.80R
WAUPACA        PTSUNNY   73  67  80 W8        29.78R
SHAWANO        CLOUDY    70  68  92 NW8       29.75R
CLINTONVILLE   CLOUDY    70  68  94 NW12      29.76R
$$

WIZ038-039-048-051-301700-
FOX VALLEY

CITY           SKY/WX    TMP DP  RH WIND       PRES   REMARKS
NWS GREEN BAY  CLOUDY    73  67  81 SW10G20   29.74R
APPLETON       PTSUNNY   72  66  83 SW12      29.77R
OSHKOSH        CLOUDY    75  67  76 SW8G18    29.76R
FOND DU LAC    CLOUDY    72  68  87 SW7       29.77S
$$

WIZ022-050-052-301700-
EAST CENTRAL WISCONSIN

CITY           SKY/WX    TMP DP  RH WIND       PRES   REMARKS
STURGEON BAY   CLOUDY    73  66  78 S12       29.74F
MANITOWOC      CLOUDY    75  71  87 SW8       29.76S
SHEBOYGAN      PTSUNNY   77  67  71 SW12      29.77S
$$

LMZ563-521-522-541>543-301700-
LAKESHORE

STATION/POSITION TIME  TEMP    WIND        PRES    VSBY  WAVE
                       AIR SEA DIR/SP/G                  HT/PER
                 (UTC) (F)     (DEG/KT/KT) (MB)    (MI)  (FT/S)
SHEBOYGAN LKSHOR 1600   70 58  180/ 16/ 18 1007.9F
KEWAUNEE LKSHORE 1600   64     180/ 12/ 14 1006.7S
TWO RIVERS CG    1500      73              1008.0   3 1/2  3
NORTHPORT PIER   1600   71     160/  4/ 10 1007.1S
N MID LAKE BUOY  1600   67 65  200/ 16/ 17 1006.9R         4/ 6
S GREEN BAY BUOY 1600   72     VRB 12/ 14  1007.7F
SISTER BAY LKSHO 1600   76     250/ 13/ 14   N/A
STURGEON BAY CG  1500   64 64  180/ 11     1008.7    3/8   2
CHAMBERS ISLAND  1600   72     190/  4/ 12 1007.1S
MENOMINEE LKSHOR 1600   72     180/  6/  8 1007.3S
$$



USA.gov is the U.S. government's official web portal to all federal, state and local government web resources and services.